| time (UTC) | temp C | wind direction | speed KPH | gust KPH | rain 1hr cm | rain 24hr cm | rain mn cm | humidity % | barometer mb |
| 20260905181626 | 24 | 99 | 11.3 | 14.5 | 0.00 | 0.00 | 0.00 | 82 | 1018.0 |
| 20260905181125 | 24 | 93 | 11.3 | 12.9 | 0.00 | 0.00 | 0.00 | 82 | 1018.2 |
| 20260905180620 | 23 | 97 | 4.8 | 12.9 | 0.00 | 0.00 | 0.00 | 82 | 1018.4 |
| 20260905180116 | 23 | 94 | 4.8 | 12.9 | 0.00 | 0.00 | 0.00 | 84 | 1018.5 |
| 20260905175615 | 25 | 89 | 9.7 | 17.7 | 0.00 | 0.00 | 0.00 | 81 | 1018.9 |
| 20260905175110 | 23 | 127 | 9.7 | 11.3 | 0.00 | 0.00 | 0.00 | 81 | 1019.0 |
| 20260905174605 | 23 | 70 | 9.7 | 12.9 | 0.00 | 0.00 | 0.00 | 83 | 1018.8 |
| 20260905174101 | 23 | 114 | 6.4 | 11.3 | 0.00 | 0.00 | 0.00 | 82 | 1019.3 |
| 20260905173557 | 23 | 84 | 11.3 | 12.9 | 0.00 | 0.00 | 0.00 | 83 | 1019.3 |
| 20260905173052 | 23 | 88 | 9.7 | 16.1 | 0.00 | 0.00 | 0.00 | 85 | 1019.3 |
| 20260905172551 | 23 | 106 | 8.0 | 12.9 | 0.00 | 0.00 | 0.00 | 83 | 1019.4 |
| 20260905172047 | 22 | 85 | 6.4 | 12.9 | 0.00 | 0.00 | 0.00 | 85 | 1019.3 |
| 20260905171543 | 22 | 164 | 3.2 | 12.9 | 0.00 | 0.00 | 0.00 | 86 | 1019.3 |
| 20260905171038 | 22 | 98 | 3.2 | 6.4 | 0.00 | 0.00 | 0.00 | 85 | 1019.5 |
| 20260905170535 | 22 | 202 | 1.6 | 11.3 | 0.00 | 0.00 | 0.00 | 87 | 1019.6 |
| 20260905170030 | 21 | 218 | 1.6 | 6.4 | 0.00 | 0.00 | 0.00 | 88 | 1019.3 |
| 20260905165525 | 21 | 55 | 4.8 | 9.7 | 0.00 | 0.00 | 0.00 | 87 | 1019.3 |
| 20260905165020 | 21 | 215 | 3.2 | 6.4 | 0.00 | 0.00 | 0.00 | 88 | 1019.3 |
| 20260905164519 | 21 | 112 | 3.2 | 6.4 | 0.00 | 0.00 | 0.00 | 88 | 1019.2 |
| 20260905164014 | 21 | 105 | 8.0 | 11.3 | 0.00 | 0.00 | 0.00 | 89 | 1019.3 |
| 20260905163510 | 21 | 67 | 6.4 | 14.5 | 0.00 | 0.00 | 0.00 | 90 | 1019.1 |
| 20260905163006 | 21 | 94 | 6.4 | 12.9 | 0.00 | 0.00 | 0.00 | 90 | 1019.4 |
| 20260905162501 | 21 | 79 | 6.4 | 11.3 | 0.00 | 0.00 | 0.00 | 89 | 1019.2 |
| 20260905161956 | 21 | 94 | 6.4 | 12.9 | 0.00 | 0.00 | 0.00 | 88 | 1019.1 |
| 20260905161456 | 20 | 95 | 3.2 | 9.7 | 0.00 | 0.00 | 0.00 | 89 | 1019.2 |
| 20260905160954 | 20 | 116 | 6.4 | 12.9 | 0.00 | 0.00 | 0.00 | 91 | 1019.1 |
| 20260905160448 | 20 | 89 | 3.2 | 12.9 | 0.00 | 0.00 | 0.00 | 91 | 1019.2 |
| 20260905155947 | 20 | 81 | 3.2 | 4.8 | 0.00 | 0.00 | 0.00 | 90 | 1019.3 |
| 20260905155442 | 20 | 118 | 6.4 | 6.4 | 0.00 | 0.00 | 0.00 | 90 | 1019.2 |
| 20260905154941 | 20 | 77 | 3.2 | 4.8 | 0.00 | 0.00 | 0.00 | 91 | 1019.2 |
| 20260905154436 | 20 | 53 | 6.4 | 11.3 | 0.00 | 0.00 | 0.00 | 92 | 1019.2 |
| 20260905153932 | 19 | 96 | 6.4 | 11.3 | 0.00 | 0.00 | 0.00 | 92 | 1019.1 |
| 20260905153428 | 19 | 116 | 3.2 | 14.5 | 0.00 | 0.00 | 0.00 | 93 | 1019.2 |
| 20260905152927 | 19 | 106 | 4.8 | 6.4 | 0.00 | 0.00 | 0.00 | 93 | 1019.2 |
| 20260905152427 | 19 | 69 | 6.4 | 6.4 | 0.00 | 0.00 | 0.00 | 93 | 1019.2 |
| 20260905151922 | 19 | 65 | 4.8 | 11.3 | 0.00 | 0.00 | 0.00 | 93 | 1019.3 |
| 20260905151413 | 20 | 227 | 1.6 | 12.9 | 0.00 | 0.00 | 0.00 | 92 | 1019.2 |
| 20260905150912 | 20 | 232 | 3.2 | 6.4 | 0.00 | 0.00 | 0.00 | 91 | 1019.2 |
| 20260905150407 | 19 | 103 | 6.4 | 11.3 | 0.00 | 0.00 | 0.00 | 92 | 1019.2 |
| 20260905145903 | 19 | 94 | 8.0 | 17.7 | 0.00 | 0.00 | 0.00 | 93 | 1019.3 |
| 20260905145358 | 18 | 85 | 3.2 | 6.4 | 0.00 | 0.00 | 0.00 | 94 | 1019.0 |
| 20260905144857 | 18 | 59 | 6.4 | 16.1 | 0.00 | 0.00 | 0.00 | 95 | 1018.9 |
| 20260905144353 | 18 | 44 | 4.8 | 9.7 | 0.00 | 0.00 | 0.00 | 95 | 1018.9 |
| 20260905143852 | 18 | 61 | 3.2 | 4.8 | 0.00 | 0.00 | 0.00 | 96 | 1019.5 |
| 20260905143346 | 18 | 169 | 3.2 | 9.7 | 0.00 | 0.00 | 0.00 | 96 | 1019.4 |
| 20260905142845 | 18 | 104 | 3.2 | 4.8 | 0.00 | 0.00 | 0.00 | 98 | 1019.6 |
| 20260905142343 | 17 | 63 | 6.4 | 11.3 | 0.00 | 0.00 | 0.00 | 98 | 1019.6 |
| 20260905141840 | 17 | 141 | 3.2 | 6.4 | 0.00 | 0.00 | 0.00 | 99 | 1019.6 |
| 20260905141335 | 17 | 122 | 3.2 | 6.4 | 0.00 | 0.00 | 0.00 | 99 | 1019.6 |
| 20260905140831 | 17 | 179 | 1.6 | 6.4 | 0.00 | 0.00 | 0.00 | 99 | 1019.5 |
| 20260905140325 | 17 | 107 | 3.2 | 16.1 | 0.00 | 0.00 | 0.00 | 99 | 1019.6 |
| 20260905135824 | 17 | 62 | 8.0 | 9.7 | 0.00 | 0.00 | 0.00 | 99 | 1019.6 |
| 20260905135320 | 17 | 70 | 3.2 | 9.7 | 0.00 | 0.00 | 0.00 | 99 | 1019.6 |
| 20260905134816 | 17 | 108 | 6.4 | 6.4 | 0.00 | 0.00 | 0.00 | 99 | 1019.4 |
| 20260905134314 | 17 | 98 | 6.4 | 9.7 | 0.00 | 0.00 | 0.00 | 99 | 1019.2 |
| 20260905133808 | 17 | 95 | 4.8 | 9.7 | 0.00 | 0.00 | 0.00 | 99 | 1019.4 |
| 20260905133304 | 17 | 87 | 3.2 | 4.8 | 0.00 | 0.00 | 0.00 | 99 | 1019.6 |
| 20260905132803 | 17 | 109 | 4.8 | 6.4 | 0.00 | 0.00 | 0.00 | 99 | 1019.5 |
| 20260905132258 | 17 | 80 | 3.2 | 3.2 | 0.00 | 0.00 | 0.00 | 99 | 1019.6 |
| 20260905131753 | 17 | 231 | 0.0 | 3.2 | 0.00 | 0.00 | 0.00 | 99 | 1019.6 |
| 20260905131248 | 17 | 92 | 6.4 | 11.3 | 0.00 | 0.00 | 0.00 | 99 | 1019.3 |
| 20260905130743 | 17 | 169 | 1.6 | 4.8 | 0.00 | 0.00 | 0.00 | 99 | 1019.1 |
| 20260905130242 | 17 | 122 | 6.4 | 11.3 | 0.00 | 0.00 | 0.00 | 99 | 1019.0 |
| 20260905125738 | 17 | 69 | 3.2 | 6.4 | 0.00 | 0.00 | 0.00 | 99 | 1018.8 |
| 20260905125233 | 17 | 145 | 4.8 | 6.4 | 0.00 | 0.00 | 0.00 | 99 | 1018.6 |
| 20260905124729 | 17 | 181 | 0.0 | 4.8 | 0.00 | 0.00 | 0.00 | 99 | 1018.7 |
| 20260905124225 | 16 | 158 | 3.2 | 9.7 | 0.00 | 0.00 | 0.00 | 99 | 1018.6 |
| 20260905123720 | 16 | 111 | 1.6 | 9.7 | 0.00 | 0.00 | 0.00 | 99 | 1018.4 |
| 20260905123217 | 16 | 222 | 1.6 | 6.4 | 0.00 | 0.00 | 0.00 | 99 | 1018.4 |
| 20260905122716 | 16 | 83 | 4.8 | 4.8 | 0.00 | 0.00 | 0.00 | 99 | 1018.4 |
| 20260905122211 | 16 | 119 | 1.6 | 6.4 | 0.00 | 0.00 | 0.00 | 99 | 1018.2 |
| 20260905121706 | 16 | 140 | 1.6 | 3.2 | 0.00 | 0.00 | 0.00 | 99 | 1018.1 |
| 20260905121203 | 16 | 90 | 3.2 | 6.4 | 0.00 | 0.00 | 0.00 | 99 | 1018.0 |
| 20260905120701 | 16 | 113 | 3.2 | 6.4 | 0.00 | 0.00 | 0.00 | 99 | 1018.1 |
| 20260905120155 | 16 | 125 | 3.2 | 9.7 | 0.00 | 0.00 | 0.00 | 99 | 1017.9 |
| 20260905115650 | 16 | 110 | 4.8 | 9.7 | 0.00 | 0.00 | 0.00 | 99 | 1018.1 |
| 20260905115145 | 16 | 128 | 0.0 | 3.2 | 0.00 | 0.00 | 0.00 | 99 | 1018.0 |
| 20260905114644 | 16 | 74 | 6.4 | 6.4 | 0.00 | 0.00 | 0.00 | 99 | 1017.9 |
| 20260905114143 | 16 | 46 | 3.2 | 4.8 | 0.00 | 0.00 | 0.00 | 99 | 1017.9 |
| 20260905113637 | 16 | 123 | 3.2 | 6.4 | 0.00 | 0.00 | 0.00 | 99 | 1018.2 |
| 20260905113133 | 16 | 161 | 1.6 | 6.4 | 0.00 | 0.00 | 0.00 | 99 | 1018.1 |
| 20260905112627 | 16 | 84 | 4.8 | 4.8 | 0.00 | 0.00 | 0.00 | 99 | 1018.0 |
| 20260905112123 | 16 | 127 | 0.0 | 1.6 | 0.00 | 0.00 | 0.00 | 99 | 1018.0 |
| 20260905111618 | 16 | 218 | 0.0 | 3.2 | 0.00 | 0.00 | 0.00 | 99 | 1017.9 |
| 20260905111117 | 16 | 183 | 0.0 | 4.8 | 0.00 | 0.00 | 0.00 | 99 | 1018.0 |
| 20260905110616 | 16 | 102 | 3.2 | 6.4 | 0.00 | 0.00 | 0.00 | 99 | 1018.1 |
| 20260905110111 | 16 | 155 | 0.0 | 9.7 | 0.00 | 0.00 | 0.00 | 99 | 1018.0 |
| 20260905105606 | 16 | 94 | 4.8 | 9.7 | 0.00 | 0.00 | 0.00 | 99 | 1018.1 |
| 20260905105105 | 17 | 100 | 6.4 | 12.9 | 0.00 | 0.00 | 0.00 | 99 | 1017.9 |
| 20260905104601 | 17 | 139 | 1.6 | 9.7 | 0.00 | 0.00 | 0.00 | 99 | 1018.1 |
| 20260905104101 | 17 | 159 | 1.6 | 9.7 | 0.00 | 0.00 | 0.00 | 99 | 1018.0 |
| 20260905103550 | 17 | 103 | 1.6 | 4.8 | 0.00 | 0.00 | 0.00 | 99 | 1017.8 |
| 20260905103047 | 17 | 71 | 1.6 | 11.3 | 0.00 | 0.00 | 0.00 | 99 | 1017.7 |
| 20260905102542 | 17 | 100 | 1.6 | 4.8 | 0.00 | 0.00 | 0.00 | 99 | 1017.9 |
| 20260905102039 | 17 | 119 | 1.6 | 3.2 | 0.00 | 0.00 | 0.00 | 99 | 1017.8 |
| 20260905101537 | 17 | 162 | 0.0 | 1.6 | 0.00 | 0.00 | 0.00 | 99 | 1017.7 |
| 20260905101035 | 17 | 187 | 0.0 | 3.2 | 0.00 | 0.00 | 0.00 | 99 | 1017.8 |
| 20260905100532 | 17 | 98 | 3.2 | 12.9 | 0.00 | 0.00 | 0.00 | 99 | 1017.7 |
| 20260905100031 | 17 | 125 | 3.2 | 4.8 | 0.00 | 0.00 | 0.00 | 99 | 1017.5 |
| 20260905095526 | 17 | 81 | 4.8 | 6.4 | 0.00 | 0.00 | 0.00 | 99 | 1017.4 |
| 20260905095021 | 17 | 102 | 3.2 | 9.7 | 0.00 | 0.00 | 0.00 | 99 | 1017.6 |
| 20260905094516 | 17 | 90 | 1.6 | 3.2 | 0.00 | 0.00 | 0.00 | 99 | 1017.6 |
| 20260905094015 | 17 | 329 | 0.0 | 6.4 | 0.00 | 0.00 | 0.00 | 99 | 1017.1 |
| 20260905093509 | 17 | 71 | 3.2 | 6.4 | 0.00 | 0.00 | 0.00 | 99 | 1016.6 |
| 20260905093007 | 17 | 83 | 6.4 | 9.7 | 0.00 | 0.00 | 0.00 | 99 | 1016.8 |
| 20260905092501 | 17 | 137 | 3.2 | 9.7 | 0.00 | 0.00 | 0.00 | 99 | 1016.6 |
| 20260905091956 | 17 | 18 | 3.2 | 4.8 | 0.00 | 0.00 | 0.00 | 99 | 1016.5 |
| 20260905091450 | 17 | 87 | 4.8 | 6.4 | 0.00 | 0.00 | 0.00 | 99 | 1016.6 |
| 20260905090950 | 17 | 60 | 4.8 | 6.4 | 0.00 | 0.00 | 0.00 | 99 | 1016.7 |
| 20260905090445 | 17 | 44 | 4.8 | 4.8 | 0.00 | 0.00 | 0.00 | 99 | 1016.5 |
| 20260905085944 | 17 | 86 | 8.0 | 12.9 | 0.00 | 0.00 | 0.00 | 99 | 1016.5 |
| 20260905085444 | 17 | 73 | 3.2 | 6.4 | 0.00 | 0.00 | 0.00 | 99 | 1016.6 |
| 20260905084939 | 17 | 90 | 6.4 | 12.9 | 0.00 | 0.00 | 0.00 | 99 | 1016.7 |
| 20260905084439 | 17 | 346 | 1.6 | 6.4 | 0.00 | 0.00 | 0.00 | 99 | 1016.8 |
| 20260905083933 | 17 | 66 | 9.7 | 12.9 | 0.00 | 0.00 | 0.00 | 99 | 1016.7 |
| 20260905083430 | 17 | 75 | 3.2 | 4.8 | 0.00 | 0.00 | 0.00 | 99 | 1017.0 |
| 20260905082925 | 17 | 122 | 3.2 | 9.7 | 0.00 | 0.00 | 0.00 | 99 | 1017.0 |
| 20260905082421 | 17 | 139 | 0.0 | 0.0 | 0.00 | 0.00 | 0.00 | 99 | 1017.5 |
| 20260905081916 | 17 | 167 | 1.6 | 1.6 | 0.00 | 0.00 | 0.00 | 99 | 1017.5 |
| 20260905081411 | 17 | 99 | 3.2 | 6.4 | 0.00 | 0.00 | 0.00 | 99 | 1017.7 |
| 20260905080910 | 17 | 115 | 6.4 | 9.7 | 0.00 | 0.00 | 0.00 | 99 | 1017.5 |
| 20260905080409 | 17 | 81 | 8.0 | 9.7 | 0.00 | 0.00 | 0.00 | 99 | 1017.6 |
| 20260905075908 | 17 | 106 | 3.2 | 4.8 | 0.00 | 0.00 | 0.00 | 99 | 1017.5 |
| 20260905075403 | 17 | 96 | 1.6 | 11.3 | 0.00 | 0.00 | 0.00 | 99 | 1017.7 |
| 20260905074902 | 17 | 88 | 1.6 | 9.7 | 0.00 | 0.00 | 0.00 | 99 | 1017.6 |
| 20260905074358 | 17 | 134 | 1.6 | 4.8 | 0.00 | 0.00 | 0.00 | 99 | 1017.7 |
| 20260905073854 | 17 | 81 | 6.4 | 11.3 | 0.00 | 0.00 | 0.00 | 99 | 1017.8 |
| 20260905073348 | 17 | 123 | 3.2 | 9.7 | 0.00 | 0.00 | 0.00 | 99 | 1017.9 |
| 20260905072843 | 18 | 57 | 3.2 | 6.4 | 0.00 | 0.00 | 0.00 | 99 | 1017.9 |
| 20260905072339 | 18 | 104 | 3.2 | 9.7 | 0.00 | 0.00 | 0.00 | 99 | 1018.0 |
| 20260905071835 | 18 | 87 | 1.6 | 3.2 | 0.00 | 0.00 | 0.00 | 99 | 1017.9 |
| 20260905071331 | 18 | 111 | 6.4 | 6.4 | 0.00 | 0.00 | 0.00 | 99 | 1018.0 |
| 20260905070826 | 18 | 111 | 6.4 | 11.3 | 0.00 | 0.00 | 0.00 | 99 | 1017.8 |
| 20260905070322 | 18 | 86 | 3.2 | 11.3 | 0.00 | 0.00 | 0.00 | 99 | 1017.7 |
| 20260905065821 | 18 | 293 | 3.2 | 9.7 | 0.00 | 0.00 | 0.00 | 99 | 1018.1 |
| 20260905065319 | 18 | 118 | 4.8 | 11.3 | 0.00 | 0.00 | 0.00 | 99 | 1017.9 |
| 20260905064815 | 18 | 87 | 6.4 | 9.7 | 0.00 | 0.00 | 0.00 | 99 | 1017.9 |
| 20260905064310 | 18 | 99 | 4.8 | 4.8 | 0.00 | 0.00 | 0.00 | 99 | 1017.9 |
| 20260905063808 | 18 | 140 | 3.2 | 6.4 | 0.00 | 0.00 | 0.00 | 99 | 1018.0 |
| 20260905063305 | 18 | 79 | 8.0 | 16.1 | 0.00 | 0.00 | 0.00 | 99 | 1017.9 |
| 20260905062801 | 18 | 115 | 1.6 | 6.4 | 0.00 | 0.00 | 0.00 | 99 | 1018.1 |
| 20260905062255 | 18 | 92 | 9.7 | 12.9 | 0.00 | 0.00 | 0.00 | 99 | 1018.2 |
| 20260905061750 | 18 | 71 | 3.2 | 12.9 | 0.00 | 0.00 | 0.00 | 99 | 1018.0 |
| 20260905061249 | 18 | 90 | 4.8 | 6.4 | 0.00 | 0.00 | 0.00 | 99 | 1018.1 |
| 20260905060743 | 18 | 157 | 4.8 | 11.3 | 0.00 | 0.00 | 0.00 | 99 | 1018.1 |
| 20260905060241 | 18 | 148 | 3.2 | 16.1 | 0.00 | 0.00 | 0.00 | 99 | 1018.0 |
| 20260905055739 | 18 | 99 | 6.4 | 9.7 | 0.00 | 0.00 | 0.00 | 99 | 1018.1 |
| 20260905055235 | 18 | 79 | 6.4 | 11.3 | 0.00 | 0.00 | 0.00 | 99 | 1018.3 |
| 20260905054729 | 18 | 94 | 1.6 | 3.2 | 0.00 | 0.00 | 0.00 | 98 | 1018.2 |
| 20260905054226 | 18 | 151 | 3.2 | 6.4 | 0.00 | 0.00 | 0.00 | 98 | 1018.1 |
| 20260905053725 | 18 | 97 | 9.7 | 11.3 | 0.00 | 0.00 | 0.00 | 99 | 1018.1 |
| 20260905053220 | 18 | 116 | 4.8 | 11.3 | 0.00 | 0.00 | 0.00 | 98 | 1018.2 |
| 20260905052714 | 19 | 109 | 1.6 | 3.2 | 0.00 | 0.00 | 0.00 | 99 | 1018.2 |
| 20260905052209 | 19 | 114 | 4.8 | 9.7 | 0.00 | 0.00 | 0.00 | 99 | 1018.2 |
| 20260905051709 | 19 | 79 | 3.2 | 6.4 | 0.00 | 0.00 | 0.00 | 99 | 1018.1 |
| 20260905051206 | 19 | 191 | 1.6 | 3.2 | 0.00 | 0.00 | 0.00 | 98 | 1017.9 |
| 20260905050702 | 19 | 111 | 1.6 | 4.8 | 0.00 | 0.00 | 0.00 | 98 | 1017.8 |
| 20260905050159 | 19 | 90 | 8.0 | 11.3 | 0.00 | 0.00 | 0.00 | 98 | 1017.6 |
| 20260905045653 | 20 | 87 | 6.4 | 9.7 | 0.00 | 0.00 | 0.00 | 98 | 1017.6 |
| 20260905045148 | 20 | 112 | 4.8 | 9.7 | 0.00 | 0.00 | 0.00 | 98 | 1017.6 |
| 20260905044648 | 20 | 71 | 8.0 | 12.9 | 0.00 | 0.00 | 0.00 | 98 | 1017.8 |
| 20260905044143 | 20 | 113 | 3.2 | 9.7 | 0.00 | 0.00 | 0.00 | 98 | 1017.6 |
| 20260905043642 | 20 | 116 | 8.0 | 11.3 | 0.00 | 0.00 | 0.00 | 98 | 1017.6 |
| 20260905043137 | 20 | 105 | 4.8 | 9.7 | 0.00 | 0.00 | 0.00 | 98 | 1017.6 |
| 20260905042636 | 20 | 75 | 3.2 | 11.3 | 0.00 | 0.00 | 0.00 | 98 | 1017.8 |
| 20260905042131 | 20 | 97 | 3.2 | 11.3 | 0.00 | 0.00 | 0.00 | 97 | 1017.7 |
| 20260905041627 | 20 | 104 | 1.6 | 9.7 | 0.00 | 0.00 | 0.00 | 97 | 1017.9 |
| 20260905041123 | 20 | 75 | 3.2 | 9.7 | 0.00 | 0.00 | 0.00 | 97 | 1017.8 |
| 20260905040622 | 20 | 112 | 6.4 | 12.9 | 0.00 | 0.00 | 0.00 | 97 | 1017.8 |
| 20260905040121 | 20 | 82 | 4.8 | 6.4 | 0.00 | 0.00 | 0.00 | 97 | 1017.9 |
| 20260905035616 | 20 | 67 | 0.0 | 6.4 | 0.00 | 0.00 | 0.00 | 96 | 1017.8 |
| 20260905035113 | 20 | 103 | 4.8 | 6.4 | 0.00 | 0.00 | 0.00 | 96 | 1017.8 |
| 20260905034608 | 20 | 1 | 6.4 | 11.3 | 0.00 | 0.00 | 0.00 | 96 | 1017.8 |
| 20260905034102 | 20 | 76 | 1.6 | 6.4 | 0.00 | 0.00 | 0.00 | 96 | 1017.8 |
| 20260905033601 | 21 | 130 | 4.8 | 4.8 | 0.00 | 0.00 | 0.00 | 96 | 1017.8 |
| 20260905033058 | 21 | 78 | 6.4 | 9.7 | 0.00 | 0.00 | 0.00 | 95 | 1017.6 |
| 20260905032557 | 21 | 65 | 1.6 | 11.3 | 0.00 | 0.00 | 0.00 | 95 | 1017.6 |
| 20260905032052 | 21 | 74 | 4.8 | 6.4 | 0.00 | 0.00 | 0.00 | 95 | 1017.6 |
| 20260905031548 | 21 | 125 | 1.6 | 4.8 | 0.00 | 0.00 | 0.00 | 95 | 1017.5 |
| 20260905031048 | 21 | 65 | 3.2 | 4.8 | 0.00 | 0.00 | 0.00 | 95 | 1017.5 |
| 20260905030543 | 21 | 105 | 1.6 | 12.9 | 0.00 | 0.00 | 0.00 | 94 | 1017.6 |
| 20260905030043 | 21 | 35 | 3.2 | 4.8 | 0.00 | 0.00 | 0.00 | 94 | 1017.4 |
| 20260905025538 | 21 | 100 | 1.6 | 6.4 | 0.00 | 0.00 | 0.00 | 94 | 1017.4 |
| 20260905025035 | 22 | 71 | 3.2 | 6.4 | 0.00 | 0.00 | 0.00 | 93 | 1017.2 |
| 20260905024530 | 22 | 51 | 6.4 | 9.7 | 0.00 | 0.00 | 0.00 | 93 | 1017.2 |
| 20260905024025 | 22 | 135 | 0.0 | 3.2 | 0.00 | 0.00 | 0.00 | 93 | 1017.4 |
| 20260905023520 | 22 | 90 | 1.6 | 12.9 | 0.00 | 0.00 | 0.00 | 92 | 1017.1 |
| 20260905023015 | 22 | 104 | 6.4 | 11.3 | 0.00 | 0.00 | 0.00 | 92 | 1017.2 |
| 20260905022515 | 22 | 86 | 1.6 | 9.7 | 0.00 | 0.00 | 0.00 | 91 | 1016.9 |
| 20260905022010 | 22 | 90 | 6.4 | 11.3 | 0.00 | 0.00 | 0.00 | 91 | 1016.7 |
| 20260905021509 | 22 | 74 | 3.2 | 9.7 | 0.00 | 0.00 | 0.00 | 90 | 1016.7 |
| 20260905021005 | 23 | 47 | 6.4 | 6.4 | 0.00 | 0.00 | 0.00 | 90 | 1016.9 |
| 20260905020459 | 23 | 84 | 4.8 | 4.8 | 0.00 | 0.00 | 0.00 | 89 | 1016.6 |
| 20260905015953 | 23 | 77 | 0.0 | 1.6 | 0.00 | 0.00 | 0.00 | 88 | 1016.7 |
| 20260905015451 | 23 | 117 | 3.2 | 4.8 | 0.00 | 0.00 | 0.00 | 87 | 1016.5 |
| 20260905014945 | 23 | 85 | 1.6 | 4.8 | 0.00 | 0.00 | 0.00 | 87 | 1016.3 |
| 20260905014441 | 23 | 76 | 3.2 | 6.4 | 0.00 | 0.00 | 0.00 | 87 | 1016.3 |
| 20260905013936 | 23 | 145 | 1.6 | 4.8 | 0.00 | 0.00 | 0.00 | 86 | 1016.2 |
| 20260905013433 | 23 | 88 | 4.8 | 6.4 | 0.00 | 0.00 | 0.00 | 86 | 1016.2 |
| 20260905012933 | 23 | 52 | 8.0 | 9.7 | 0.00 | 0.00 | 0.00 | 86 | 1016.1 |
| 20260905012428 | 23 | 90 | 0.0 | 1.6 | 0.00 | 0.00 | 0.00 | 86 | 1015.9 |
| 20260905011925 | 23 | 62 | 3.2 | 3.2 | 0.00 | 0.00 | 0.00 | 86 | 1016.0 |
| 20260905011421 | 23 | 93 | 1.6 | 1.6 | 0.00 | 0.00 | 0.00 | 86 | 1016.1 |
| 20260905010916 | 24 | 145 | 0.0 | 0.0 | 0.00 | 0.00 | 0.00 | 85 | 1016.3 |
| 20260905010411 | 24 | 90 | 1.6 | 3.2 | 0.00 | 0.00 | 0.00 | 84 | 1016.2 |
| 20260905005907 | 25 | 90 | 1.6 | 6.4 | 0.00 | 0.00 | 0.00 | 83 | 1016.3 |
| 20260905005403 | 25 | 54 | 3.2 | 4.8 | 0.00 | 0.00 | 0.00 | 83 | 1016.1 |
| 20260905004857 | 25 | 144 | 1.6 | 4.8 | 0.00 | 0.00 | 0.00 | 82 | 1015.9 |
| 20260905004352 | 25 | 121 | 0.0 | 4.8 | 0.00 | 0.00 | 0.00 | 82 | 1016.1 |
| 20260905003847 | 25 | 149 | 0.0 | 3.2 | 0.00 | 0.00 | 0.00 | 82 | 1015.9 |
| 20260905003343 | 25 | 93 | 1.6 | 3.2 | 0.00 | 0.00 | 0.00 | 81 | 1016.2 |
| 20260905002838 | 25 | 91 | 1.6 | 4.8 | 0.00 | 0.00 | 0.00 | 81 | 1016.0 |
| 20260905002338 | 25 | 127 | 0.0 | 1.6 | 0.00 | 0.00 | 0.00 | 81 | 1016.0 |
| 20260905001832 | 25 | 21 | 1.6 | 4.8 | 0.00 | 0.00 | 0.00 | 80 | 1016.0 |
| 20260905001327 | 26 | 151 | 0.0 | 1.6 | 0.00 | 0.00 | 0.00 | 80 | 1016.1 |
| 20260905000823 | 26 | 137 | 1.6 | 3.2 | 0.00 | 0.00 | 0.00 | 79 | 1016.2 |
| 20260905000318 | 26 | 119 | 0.0 | 1.6 | 0.00 | 0.00 | 0.00 | 78 | 1015.8 |
| 20260904235812 | 26 | 139 | 0.0 | 3.2 | 0.00 | 0.00 | 0.00 | 77 | 1016.0 |
| 20260904235307 | 26 | 113 | 1.6 | 3.2 | 0.00 | 0.00 | 0.00 | 76 | 1015.9 |
| 20260904234802 | 27 | 112 | 1.6 | 4.8 | 0.00 | 0.00 | 0.00 | 75 | 1015.9 |
| 20260904234252 | 27 | 109 | 1.6 | 4.8 | 0.00 | 0.00 | 0.00 | 74 | 1015.9 |
| 20260904233747 | 27 | 82 | 1.6 | 4.8 | 0.00 | 0.00 | 0.00 | 72 | 1015.9 |
| 20260904233238 | 28 | 81 | 4.8 | 6.4 | 0.00 | 0.00 | 0.00 | 71 | 1015.9 |
| 20260904232734 | 28 | 147 | 4.8 | 6.4 | 0.00 | 0.00 | 0.00 | 71 | 1015.8 |
| 20260904232230 | 28 | 91 | 3.2 | 9.7 | 0.00 | 0.00 | 0.00 | 70 | 1015.7 |
| 20260904231725 | 28 | 28 | 4.8 | 6.4 | 0.00 | 0.00 | 0.00 | 69 | 1015.7 |
| 20260904231220 | 28 | 45 | 3.2 | 6.4 | 0.00 | 0.00 | 0.00 | 70 | 1015.6 |
| 20260904230715 | 28 | 57 | 4.8 | 6.4 | 0.00 | 0.00 | 0.00 | 68 | 1015.7 |
| 20260904230209 | 28 | 98 | 3.2 | 9.7 | 0.00 | 0.00 | 0.00 | 68 | 1015.6 |
| 20260904225708 | 29 | 54 | 8.0 | 12.9 | 0.00 | 0.00 | 0.00 | 67 | 1015.5 |
| 20260904225202 | 28 | 121 | 1.6 | 4.8 | 0.00 | 0.00 | 0.00 | 68 | 1015.5 |
| 20260904224656 | 28 | 88 | 3.2 | 6.4 | 0.00 | 0.00 | 0.00 | 68 | 1015.5 |
| 20260904224151 | 29 | 171 | 3.2 | 11.3 | 0.00 | 0.00 | 0.00 | 66 | 1015.7 |
| 20260904223650 | 29 | 135 | 11.3 | 12.9 | 0.00 | 0.00 | 0.00 | 66 | 1015.7 |
| 20260904223146 | 29 | 95 | 6.4 | 6.4 | 0.00 | 0.00 | 0.00 | 65 | 1015.6 |
| 20260904222642 | 28 | 75 | 3.2 | 9.7 | 0.00 | 0.00 | 0.00 | 67 | 1015.5 |
| 20260904222137 | 29 | 99 | 8.0 | 11.3 | 0.00 | 0.00 | 0.00 | 67 | 1015.5 |
| 20260904221636 | 29 | 8 | 6.4 | 11.3 | 0.00 | 0.00 | 0.00 | 67 | 1015.6 |
| 20260904221131 | 29 | 80 | 6.4 | 14.5 | 0.00 | 0.00 | 0.00 | 67 | 1015.4 |
| 20260904220626 | 29 | 83 | 4.8 | 9.7 | 0.00 | 0.00 | 0.00 | 64 | 1015.5 |
| 20260904220121 | 30 | 91 | 6.4 | 11.3 | 0.00 | 0.00 | 0.00 | 65 | 1015.6 |
| 20260904215616 | 29 | 26 | 6.4 | 11.3 | 0.00 | 0.00 | 0.00 | 65 | 1015.4 |
| 20260904215112 | 29 | 80 | 3.2 | 11.3 | 0.00 | 0.00 | 0.00 | 68 | 1015.5 |
| 20260904214607 | 30 | 52 | 3.2 | 4.8 | 0.00 | 0.00 | 0.00 | 65 | 1015.4 |
| 20260904214103 | 30 | 86 | 3.2 | 6.4 | 0.00 | 0.00 | 0.00 | 65 | 1015.5 |
| 20260904213600 | 29 | 266 | 1.6 | 6.4 | 0.00 | 0.00 | 0.00 | 66 | 1015.4 |
| 20260904213057 | 30 | 55 | 9.7 | 11.3 | 0.00 | 0.00 | 0.00 | 64 | 1015.5 |
| 20260904212556 | 29 | 209 | 1.6 | 6.4 | 0.00 | 0.00 | 0.00 | 66 | 1015.6 |
| 20260904212052 | 30 | 98 | 8.0 | 11.3 | 0.00 | 0.00 | 0.00 | 67 | 1015.7 |
| 20260904211551 | 29 | 55 | 6.4 | 9.7 | 0.00 | 0.00 | 0.00 | 68 | 1015.6 |
| 20260904211047 | 29 | 139 | 3.2 | 4.8 | 0.00 | 0.00 | 0.00 | 68 | 1015.7 |
| 20260904210546 | 30 | 328 | 4.8 | 9.7 | 0.00 | 0.00 | 0.00 | 67 | 1015.5 |
| 20260904210042 | 29 | 103 | 4.8 | 6.4 | 0.00 | 0.00 | 0.00 | 67 | 1015.4 |
| 20260904205536 | 30 | 107 | 3.2 | 4.8 | 0.00 | 0.00 | 0.00 | 68 | 1015.6 |
| 20260904205033 | 30 | 6 | 3.2 | 6.4 | 0.00 | 0.00 | 0.00 | 69 | 1015.4 |
| 20260904204529 | 29 | 358 | 3.2 | 4.8 | 0.00 | 0.00 | 0.00 | 68 | 1015.5 |
| 20260904204025 | 29 | 41 | 1.6 | 3.2 | 0.00 | 0.00 | 0.00 | 68 | 1015.6 |
| 20260904203520 | 29 | 188 | 0.0 | 9.7 | 0.00 | 0.00 | 0.00 | 70 | 1015.5 |
| 20260904203017 | 28 | 76 | 4.8 | 11.3 | 0.00 | 0.00 | 0.00 | 70 | 1015.6 |
| 20260904202512 | 29 | 17 | 4.8 | 9.7 | 0.00 | 0.00 | 0.00 | 69 | 1015.5 |
| 20260904202008 | 29 | 42 | 3.2 | 16.1 | 0.00 | 0.00 | 0.00 | 74 | 1015.7 |
| 20260904201503 | 29 | 14 | 3.2 | 4.8 | 0.00 | 0.00 | 0.00 | 72 | 1015.7 |
| 20260904200959 | 28 | 74 | 3.2 | 9.7 | 0.00 | 0.00 | 0.00 | 71 | 1015.7 |
| 20260904200457 | 28 | 333 | 3.2 | 12.9 | 0.00 | 0.00 | 0.00 | 73 | 1015.6 |
| 20260904195952 | 28 | 103 | 3.2 | 4.8 | 0.00 | 0.00 | 0.00 | 71 | 1015.6 |
| 20260904195450 | 28 | 299 | 3.2 | 9.7 | 0.00 | 0.00 | 0.00 | 74 | 1015.6 |
| 20260904194949 | 28 | 86 | 3.2 | 4.8 | 0.00 | 0.00 | 0.00 | 72 | 1015.5 |
| 20260904194444 | 27 | 32 | 1.6 | 9.7 | 0.00 | 0.00 | 0.00 | 76 | 1015.5 |
| 20260904193939 | 27 | 66 | 3.2 | 4.8 | 0.00 | 0.00 | 0.00 | 75 | 1015.5 |
| 20260904193435 | 27 | 1 | 6.4 | 11.3 | 0.00 | 0.00 | 0.00 | 77 | 1015.3 |
| 20260904192930 | 27 | 84 | 4.8 | 9.7 | 0.00 | 0.00 | 0.00 | 76 | 1015.4 |
| 20260904192425 | 27 | 223 | 0.0 | 9.7 | 0.00 | 0.00 | 0.00 | 78 | 1015.7 |
| 20260904191922 | 27 | 53 | 6.4 | 9.7 | 0.00 | 0.00 | 0.00 | 79 | 1015.5 |
| 20260904191418 | 27 | 131 | 6.4 | 11.3 | 0.00 | 0.00 | 0.00 | 79 | 1015.8 |
| 20260904190914 | 27 | 155 | 3.2 | 9.7 | 0.00 | 0.00 | 0.00 | 79 | 1015.6 |
| 20260904190409 | 26 | 151 | 3.2 | 9.7 | 0.00 | 0.00 | 0.00 | 81 | 1015.6 |
| 20260904185906 | 27 | 340 | 1.6 | 9.7 | 0.00 | 0.00 | 0.00 | 80 | 1015.9 |
| 20260904185401 | 26 | 65 | 1.6 | 11.3 | 0.00 | 0.00 | 0.00 | 82 | 1015.9 |
| 20260904184901 | 26 | 121 | 6.4 | 9.7 | 0.00 | 0.00 | 0.00 | 81 | 1015.7 |
| 20260904184356 | 26 | 19 | 3.2 | 6.4 | 0.00 | 0.00 | 0.00 | 82 | 1015.7 |
| 20260904183851 | 25 | 40 | 6.4 | 9.7 | 0.00 | 0.00 | 0.00 | 83 | 1015.7 |
| 20260904183346 | 25 | 22 | 8.0 | 11.3 | 0.00 | 0.00 | 0.00 | 84 | 1015.9 |
| 20260904182842 | 25 | 1 | 8.0 | 9.7 | 0.00 | 0.00 | 0.00 | 83 | 1015.8 |
| 20260904182336 | 25 | 107 | 3.2 | 11.3 | 0.00 | 0.00 | 0.00 | 86 | 1016.0 |
| 20260904181832 | 25 | 75 | 4.8 | 9.7 | 0.00 | 0.00 | 0.00 | 87 | 1016.1 |